Time,TemperatureF,DewpointF,PressureIn,WindDirection,WindDirectionDegrees,WindSpeedMPH,WindSpeedGustMPH,Humidity,HourlyPrecipIn,Conditions,Clouds,dailyrainin,SoftwareType,DateUTC
2013-03-09 00:00:00,48.7,43.8,29.25,East,90,13.0,21.0,83,0.00,RA,RA,0.00,WeatherDisplay:10.37,2013-03-09 00:00:00,
2013-03-09 00:10:00,48.9,44.0,29.25,East,100,12.0,18.0,83,0.00,CLR,CLR,0.00,WeatherDisplay:10.37,2013-03-09 00:10:00,
2013-03-09 00:20:00,49.1,43.8,29.25,East,96,12.0,21.0,82,0.00,CLR,CLR,0.00,WeatherDisplay:10.37,2013-03-09 00:20:00,
2013-03-09 00:30:00,48.9,43.7,29.24,East,90,9.0,20.0,82,0.00,CLR,CLR,0.00,WeatherDisplay:10.37,2013-03-09 00:30:00,
2013-03-09 00:40:00,48.9,43.7,29.25,East,100,15.0,23.0,82,0.00,CLR,CLR,0.00,WeatherDisplay:10.37,2013-03-09 00:40:00,
2013-03-09 00:50:00,49.1,43.8,29.25,East,90,15.0,23.0,82,0.00,CLR,CLR,0.00,WeatherDisplay:10.37,2013-03-09 00:50:00,
2013-03-09 01:00:00,49.0,44.0,29.25,East,92,20.0,26.0,83,0.00,CLR,CLR,0.00,WeatherDisplay:10.37,2013-03-09 01:00:00,
2013-03-09 01:10:00,48.9,44.3,29.25,ESE,105,10.0,23.0,84,0.00,CLR,CLR,0.00,WeatherDisplay:10.37,2013-03-09 01:10:00,
2013-03-09 01:20:00,48.9,44.3,29.24,East,98,10.0,21.0,84,0.00,CLR,CLR,0.00,WeatherDisplay:10.37,2013-03-09 01:20:00,
2013-03-09 01:30:00,48.9,44.3,29.24,NE,56,13.0,21.0,84,0.00,CLR,CLR,0.00,WeatherDisplay:10.37,2013-03-09 01:30:00,
2013-03-09 01:40:00,48.9,44.3,29.24,NE,48,13.0,23.0,84,0.00,CLR,CLR,0.00,WeatherDisplay:10.37,2013-03-09 01:40:00,
2013-03-09 01:50:00,49.1,44.5,29.25,NE,45,13.0,23.0,84,0.00,CLR,CLR,0.00,WeatherDisplay:10.37,2013-03-09 01:50:00,
2013-03-09 02:00:00,49.1,44.5,29.25,NE,47,9.0,21.0,84,0.00,CLR,CLR,0.00,WeatherDisplay:10.37,2013-03-09 02:00:00,
2013-03-09 02:10:00,49.1,44.5,29.24,East,88,5.0,17.0,84,0.00,CLR,CLR,0.00,WeatherDisplay:10.37,2013-03-09 02:10:00,
2013-03-09 02:20:00,49.3,44.6,29.24,East,90,9.0,17.0,84,0.00,CLR,CLR,0.00,WeatherDisplay:10.37,2013-03-09 02:20:00,
2013-03-09 02:30:00,49.5,44.5,29.24,East,90,7.0,17.0,83,0.00,CLR,CLR,0.00,WeatherDisplay:10.37,2013-03-09 02:30:00,
2013-03-09 02:40:00,49.8,44.9,29.24,ESE,109,10.0,20.0,83,0.00,CLR,CLR,0.00,WeatherDisplay:10.37,2013-03-09 02:40:00,
2013-03-09 02:50:00,49.6,44.7,29.24,East,90,9.0,20.0,83,0.00,CLR,CLR,0.00,WeatherDisplay:10.37,2013-03-09 02:50:00,
2013-03-09 03:00:00,49.8,44.8,29.23,East,90,8.0,15.0,83,0.00,CLR,CLR,0.00,WeatherDisplay:10.37,2013-03-09 03:00:00,
2013-03-09 03:10:00,49.6,44.7,29.23,ESE,123,6.0,16.0,83,0.00,CLR,CLR,0.00,WeatherDisplay:10.37,2013-03-09 03:10:00,
2013-03-09 03:20:00,49.8,44.9,29.23,East,90,9.0,15.0,83,0.00,CLR,CLR,0.00,WeatherDisplay:10.37,2013-03-09 03:20:00,
2013-03-09 03:30:00,50.0,44.7,29.23,East,90,6.0,15.0,82,0.00,CLR,CLR,0.00,WeatherDisplay:10.37,2013-03-09 03:30:00,
2013-03-09 03:40:00,50.0,44.7,29.23,SE,124,10.0,17.0,82,0.00,CLR,CLR,0.00,WeatherDisplay:10.37,2013-03-09 03:40:00,
2013-03-09 03:50:00,50.0,44.7,29.23,SE,135,13.0,20.0,82,0.00,CLR,CLR,0.00,WeatherDisplay:10.37,2013-03-09 03:50:00,
2013-03-09 04:00:00,49.9,45.0,29.23,SE,135,16.0,27.0,83,0.00,CLR,CLR,0.00,WeatherDisplay:10.37,2013-03-09 04:00:00,
2013-03-09 04:10:00,49.5,45.1,29.22,SE,135,18.0,26.0,85,0.00,CLR,CLR,0.00,WeatherDisplay:10.37,2013-03-09 04:10:00,
2013-03-09 04:20:00,49.3,45.0,29.23,East,90,15.0,27.0,85,0.00,CLR,CLR,0.00,WeatherDisplay:10.37,2013-03-09 04:20:00,
2013-03-09 04:30:00,49.3,45.3,29.22,SE,133,13.0,23.0,86,0.00,CLR,CLR,0.00,WeatherDisplay:10.37,2013-03-09 04:30:00,
2013-03-09 04:40:00,49.3,45.3,29.23,East,90,18.0,29.0,86,0.00,CLR,CLR,0.00,WeatherDisplay:10.37,2013-03-09 04:40:00,
2013-03-09 04:50:00,49.5,45.1,29.23,East,90,18.0,27.0,85,0.00,CLR,CLR,0.00,WeatherDisplay:10.37,2013-03-09 04:50:00,
2013-03-09 05:00:00,49.6,45.3,29.24,East,91,17.0,25.0,85,0.00,CLR,CLR,0.00,WeatherDisplay:10.37,2013-03-09 05:00:00,
2013-03-09 05:10:00,49.8,45.5,29.24,SE,126,16.0,27.0,85,0.00,CLR,CLR,0.00,WeatherDisplay:10.37,2013-03-09 05:10:00,
2013-03-09 05:20:00,49.8,45.5,29.24,SE,131,14.0,23.0,85,0.00,CLR,CLR,0.00,WeatherDisplay:10.37,2013-03-09 05:20:00,
2013-03-09 05:30:00,49.8,45.2,29.24,SE,135,14.0,23.0,84,0.00,CLR,CLR,0.00,WeatherDisplay:10.37,2013-03-09 05:30:00,
2013-03-09 05:40:00,49.8,45.2,29.25,SE,135,16.0,24.0,84,0.00,CLR,CLR,0.00,WeatherDisplay:10.37,2013-03-09 05:40:00,
2013-03-09 05:50:00,49.6,45.3,29.25,SE,135,16.0,23.0,85,0.00,CLR,CLR,0.00,WeatherDisplay:10.37,2013-03-09 05:50:00,
2013-03-09 06:00:00,49.6,45.3,29.25,SE,135,15.0,22.0,85,0.00,CLR,CLR,0.00,WeatherDisplay:10.37,2013-03-09 06:00:00,
2013-03-09 06:10:00,49.7,45.4,29.25,SE,133,15.0,22.0,85,0.00,CLR,CLR,0.00,WeatherDisplay:10.37,2013-03-09 06:10:00,
2013-03-09 06:20:00,49.6,45.0,29.26,SE,135,14.0,23.0,84,0.00,CLR,CLR,0.00,WeatherDisplay:10.37,2013-03-09 06:20:00,
2013-03-09 06:30:00,49.6,45.0,29.26,SE,135,16.0,22.0,84,0.00,CLR,CLR,0.00,WeatherDisplay:10.37,2013-03-09 06:30:00,
2013-03-09 06:40:00,49.8,44.9,29.27,SE,135,13.0,21.0,83,0.00,CLR,CLR,0.00,WeatherDisplay:10.37,2013-03-09 06:40:00,
2013-03-09 06:50:00,50.0,44.4,29.27,SE,139,13.0,20.0,81,0.00,CLR,CLR,0.00,WeatherDisplay:10.37,2013-03-09 06:50:00,
2013-03-09 07:00:00,49.8,44.2,29.28,SE,135,15.0,21.0,81,0.00,CLR,CLR,0.00,WeatherDisplay:10.37,2013-03-09 07:00:00,
2013-03-09 07:10:00,49.8,43.9,29.28,SE,135,14.0,18.0,80,0.00,CLR,CLR,0.00,WeatherDisplay:10.37,2013-03-09 07:10:00,
2013-03-09 07:20:00,49.3,43.4,29.29,SE,135,10.0,18.0,80,0.00,CLR,CLR,0.00,WeatherDisplay:10.37,2013-03-09 07:20:00,
2013-03-09 07:30:00,49.3,43.4,29.30,SE,144,10.0,15.0,80,0.00,CLR,CLR,0.00,WeatherDisplay:10.37,2013-03-09 07:30:00,
2013-03-09 07:40:00,48.9,43.0,29.31,SE,136,10.0,15.0,80,0.00,CLR,CLR,0.00,WeatherDisplay:10.37,2013-03-09 07:40:00,
2013-03-09 07:50:00,48.9,43.0,29.31,SE,135,10.0,14.0,80,0.00,CLR,CLR,0.00,WeatherDisplay:10.37,2013-03-09 07:50:00,
2013-03-09 08:00:00,48.7,42.8,29.31,SE,135,9.0,15.0,80,0.00,CLR,CLR,0.00,WeatherDisplay:10.37,2013-03-09 08:00:00,
2013-03-09 08:10:00,48.6,43.0,29.32,SE,135,8.0,13.0,81,0.00,CLR,CLR,0.00,WeatherDisplay:10.37,2013-03-09 08:10:00,
2013-03-09 08:20:00,48.7,42.8,29.33,SE,135,12.0,16.0,80,0.00,CLR,CLR,0.00,WeatherDisplay:10.37,2013-03-09 08:20:00,
2013-03-09 08:30:00,49.6,43.0,29.33,SE,135,10.0,15.0,78,0.00,CLR,CLR,0.00,WeatherDisplay:10.37,2013-03-09 08:30:00,
2013-03-09 08:40:00,49.8,42.9,29.33,SE,135,10.0,15.0,77,0.00,CLR,CLR,0.00,WeatherDisplay:10.37,2013-03-09 08:40:00,
2013-03-09 08:50:00,50.0,42.7,29.33,SE,135,13.0,15.0,76,0.00,CLR,CLR,0.00,WeatherDisplay:10.37,2013-03-09 08:50:00,
2013-03-09 09:00:00,50.4,42.7,29.33,SE,135,12.0,20.0,75,0.00,CLR,CLR,0.00,WeatherDisplay:10.37,2013-03-09 09:00:00,
2013-03-09 09:10:00,50.7,42.7,29.33,SE,135,16.0,20.0,74,0.00,CLR,CLR,0.00,WeatherDisplay:10.37,2013-03-09 09:10:00,
2013-03-09 09:20:00,50.9,42.9,29.33,SE,136,18.0,23.0,74,0.00,CLR,CLR,0.00,WeatherDisplay:10.37,2013-03-09 09:20:00,
2013-03-09 09:30:00,50.7,42.7,29.33,SE,135,18.0,23.0,74,0.00,CLR,CLR,0.00,WeatherDisplay:10.37,2013-03-09 09:30:00,
2013-03-09 09:40:00,50.2,42.6,29.33,SE,135,14.0,24.0,75,0.00,CLR,CLR,0.00,WeatherDisplay:10.37,2013-03-09 09:40:00,
2013-03-09 09:50:00,50.7,43.1,29.34,SE,139,18.0,22.0,75,0.00,CLR,CLR,0.00,WeatherDisplay:10.37,2013-03-09 09:50:00,
2013-03-09 10:00:00,51.8,43.4,29.34,SE,135,17.0,25.0,73,0.00,CLR,CLR,0.00,WeatherDisplay:10.37,2013-03-09 10:00:00,
2013-03-09 10:10:00,51.6,43.6,29.34,SE,142,16.0,24.0,74,0.00,CLR,CLR,0.00,WeatherDisplay:10.37,2013-03-09 10:10:00,
2013-03-09 10:20:00,51.7,43.7,29.34,SE,142,16.0,22.0,74,0.00,CLR,CLR,0.00,WeatherDisplay:10.37,2013-03-09 10:20:00,
2013-03-09 10:30:00,51.9,43.5,29.35,ESE,108,15.0,21.0,73,0.00,CLR,CLR,0.00,WeatherDisplay:10.37,2013-03-09 10:30:00,
2013-03-09 10:40:00,52.0,43.6,29.35,SE,135,13.0,21.0,73,0.00,CLR,CLR,0.00,WeatherDisplay:10.37,2013-03-09 10:40:00,
2013-03-09 10:50:00,52.2,43.4,29.35,SE,135,15.0,22.0,72,0.00,CLR,CLR,0.00,WeatherDisplay:10.37,2013-03-09 10:50:00,
2013-03-09 11:00:00,52.3,43.6,29.35,SE,135,18.0,23.0,72,0.00,CLR,CLR,0.00,WeatherDisplay:10.37,2013-03-09 11:00:00,
2013-03-09 11:10:00,52.6,44.1,29.35,SE,135,14.0,21.0,73,0.00,CLR,CLR,0.00,WeatherDisplay:10.37,2013-03-09 11:10:00,
2013-03-09 11:20:00,52.9,44.1,29.35,ESE,107,14.0,24.0,72,0.00,CLR,CLR,0.00,WeatherDisplay:10.37,2013-03-09 11:20:00,
2013-03-09 11:30:00,53.8,44.6,29.36,SE,132,14.0,25.0,71,0.00,CLR,CLR,0.00,WeatherDisplay:10.37,2013-03-09 11:30:00,
2013-03-09 11:40:00,53.6,43.7,29.36,SE,139,14.0,22.0,69,0.00,CLR,CLR,0.00,WeatherDisplay:10.37,2013-03-09 11:40:00,
2013-03-09 11:50:00,53.2,44.1,29.35,South,176,13.0,21.0,71,0.00,CLR,CLR,0.00,WeatherDisplay:10.37,2013-03-09 11:50:00,
2013-03-09 12:00:00,54.1,44.2,29.35,SE,124,15.0,21.0,69,0.00,CLR,CLR,0.00,WeatherDisplay:10.37,2013-03-09 12:00:00,
2013-03-09 12:10:00,53.8,43.1,29.36,SE,132,17.0,21.0,67,0.00,CLR,CLR,0.00,WeatherDisplay:10.37,2013-03-09 12:10:00,
2013-03-09 12:20:00,53.6,41.7,29.36,SE,135,20.0,26.0,64,0.00,CLR,CLR,0.00,WeatherDisplay:10.37,2013-03-09 12:20:00,
2013-03-09 12:30:00,53.9,42.8,29.36,SE,135,17.0,24.0,66,0.00,CLR,CLR,0.00,WeatherDisplay:10.37,2013-03-09 12:30:00,
2013-03-09 12:40:00,54.3,42.8,29.36,SE,135,14.0,23.0,65,0.00,CLR,CLR,0.00,WeatherDisplay:10.37,2013-03-09 12:40:00,
2013-03-09 12:50:00,55.0,42.7,29.36,ESE,122,18.0,25.0,63,0.00,CLR,CLR,0.00,WeatherDisplay:10.37,2013-03-09 12:50:00,
2013-03-09 13:00:00,54.5,42.2,29.36,SE,135,15.0,25.0,63,0.00,CLR,CLR,0.00,WeatherDisplay:10.37,2013-03-09 13:00:00,
2013-03-09 13:10:00,54.7,42.3,29.36,SE,135,13.0,22.0,63,0.00,CLR,CLR,0.00,WeatherDisplay:10.37,2013-03-09 13:10:00,
2013-03-09 13:20:00,55.4,42.6,29.36,SE,135,17.0,24.0,62,0.00,CLR,CLR,0.00,WeatherDisplay:10.37,2013-03-09 13:20:00,
2013-03-09 13:30:00,55.6,41.9,29.36,SE,140,15.0,25.0,60,0.00,CLR,CLR,0.00,WeatherDisplay:10.37,2013-03-09 13:30:00,
2013-03-09 13:40:00,55.4,41.7,29.36,SE,142,15.0,23.0,60,0.00,CLR,CLR,0.00,WeatherDisplay:10.37,2013-03-09 13:40:00,
2013-03-09 13:50:00,55.3,42.1,29.37,SSE,167,10.0,21.0,61,0.00,CLR,CLR,0.00,WeatherDisplay:10.37,2013-03-09 13:50:00,
2013-03-09 14:00:00,55.0,41.8,29.37,SE,140,17.0,23.0,61,0.00,CLR,CLR,0.00,WeatherDisplay:10.37,2013-03-09 14:00:00,
2013-03-09 14:10:00,55.6,41.9,29.37,SSE,152,15.0,25.0,60,0.00,CLR,CLR,0.00,WeatherDisplay:10.37,2013-03-09 14:10:00,
2013-03-09 14:20:00,57.1,42.9,29.37,SSE,157,13.0,24.0,59,0.00,CLR,CLR,0.00,WeatherDisplay:10.37,2013-03-09 14:20:00,
2013-03-09 14:30:00,56.1,42.8,29.36,SE,143,15.0,21.0,61,0.00,CLR,CLR,0.00,WeatherDisplay:10.37,2013-03-09 14:30:00,
2013-03-09 14:40:00,56.7,42.5,29.36,ESE,112,15.0,23.0,59,0.00,CLR,CLR,0.00,WeatherDisplay:10.37,2013-03-09 14:40:00,
2013-03-09 14:50:00,55.9,41.8,29.37,ESE,118,10.0,23.0,59,0.00,CLR,CLR,0.00,WeatherDisplay:10.37,2013-03-09 14:50:00,
2013-03-09 15:00:00,53.4,44.2,29.37,ESE,113,12.0,24.0,71,0.00,CLR,CLR,0.00,WeatherDisplay:10.37,2013-03-09 15:00:00,
2013-03-09 15:10:00,52.0,43.9,29.37,SE,135,8.0,20.0,74,0.00,CLR,CLR,0.00,WeatherDisplay:10.37,2013-03-09 15:10:00,
2013-03-09 15:20:00,51.6,44.3,29.37,SSE,154,9.0,27.0,76,0.00,CLR,CLR,0.00,WeatherDisplay:10.37,2013-03-09 15:20:00,
2013-03-09 15:30:00,51.4,44.1,29.38,SSE,150,9.0,23.0,76,0.00,CLR,CLR,0.00,WeatherDisplay:10.37,2013-03-09 15:30:00,
2013-03-09 15:40:00,51.3,44.0,29.38,SE,135,9.0,26.0,76,0.00,CLR,CLR,0.00,WeatherDisplay:10.37,2013-03-09 15:40:00,
2013-03-09 15:50:00,51.2,43.9,29.38,SSE,162,10.0,26.0,76,0.00,CLR,CLR,0.00,WeatherDisplay:10.37,2013-03-09 15:50:00,
2013-03-09 16:00:00,51.9,43.5,29.38,South,180,7.0,23.0,73,0.00,CLR,CLR,0.00,WeatherDisplay:10.37,2013-03-09 16:00:00,
2013-03-09 16:10:00,50.2,42.9,29.39,South,180,12.0,24.0,76,0.00,CLR,CLR,0.00,WeatherDisplay:10.37,2013-03-09 16:10:00,
2013-03-09 16:20:00,50.9,43.6,29.39,South,172,10.0,25.0,76,0.00,CLR,CLR,0.00,WeatherDisplay:10.37,2013-03-09 16:20:00,
2013-03-09 16:30:00,51.2,43.6,29.39,SE,145,18.0,27.0,75,0.00,CLR,CLR,0.00,WeatherDisplay:10.37,2013-03-09 16:30:00,
2013-03-09 16:40:00,50.2,42.9,29.39,SE,135,15.0,30.0,76,0.00,CLR,CLR,0.00,WeatherDisplay:10.37,2013-03-09 16:40:00,
2013-03-09 16:50:00,49.5,43.2,29.39,SE,135,10.0,20.0,79,0.00,CLR,CLR,0.00,WeatherDisplay:10.37,2013-03-09 16:50:00,
2013-03-09 17:00:00,48.7,42.8,29.40,East,101,12.0,24.0,80,0.00,CLR,CLR,0.00,WeatherDisplay:10.37,2013-03-09 17:00:00,
2013-03-09 17:10:00,48.2,42.3,29.40,SSE,147,13.0,28.0,80,0.00,CLR,CLR,0.00,WeatherDisplay:10.37,2013-03-09 17:10:00,
2013-03-09 17:20:00,47.7,42.8,29.40,South,180,9.0,24.0,83,0.00,CLR,CLR,0.00,WeatherDisplay:10.37,2013-03-09 17:20:00,
2013-03-09 17:30:00,47.1,42.5,29.41,South,180,10.0,21.0,84,0.00,CLR,CLR,0.00,WeatherDisplay:10.37,2013-03-09 17:30:00,
2013-03-09 17:40:00,46.8,42.2,29.41,SSW,212,9.0,23.0,84,0.00,CLR,CLR,0.00,WeatherDisplay:10.37,2013-03-09 17:40:00,
2013-03-09 17:50:00,46.6,42.0,29.42,SW,225,12.0,25.0,84,0.00,CLR,CLR,0.00,WeatherDisplay:10.37,2013-03-09 17:50:00,
2013-03-09 18:00:00,46.2,41.3,29.42,West,270,9.0,21.0,83,0.00,CLR,CLR,0.00,WeatherDisplay:10.37,2013-03-09 18:00:00,
2013-03-09 18:10:00,45.9,41.0,29.42,West,276,10.0,23.0,83,0.00,CLR,CLR,0.00,WeatherDisplay:10.37,2013-03-09 18:10:00,
2013-03-09 18:20:00,45.5,40.6,29.42,NW,305,12.0,23.0,83,0.00,CLR,CLR,0.00,WeatherDisplay:10.37,2013-03-09 18:20:00,
2013-03-09 18:30:00,45.3,40.8,29.43,NW,317,16.0,25.0,84,0.00,CLR,CLR,0.00,WeatherDisplay:10.37,2013-03-09 18:30:00,
2013-03-09 18:40:00,45.3,40.8,29.43,North,357,9.0,21.0,84,0.00,CLR,CLR,0.00,WeatherDisplay:10.37,2013-03-09 18:40:00,
2013-03-09 18:50:00,45.0,40.1,29.43,North,0,13.0,29.0,83,0.00,CLR,CLR,0.00,WeatherDisplay:10.37,2013-03-09 18:50:00,
2013-03-09 19:00:00,45.0,40.1,29.44,North,0,9.0,21.0,83,0.00,CLR,CLR,0.00,WeatherDisplay:10.37,2013-03-09 19:00:00,
2013-03-09 19:10:00,44.6,39.8,29.44,North,0,9.0,21.0,83,0.00,CLR,CLR,0.00,WeatherDisplay:10.37,2013-03-09 19:10:00,
2013-03-09 19:20:00,44.4,39.9,29.44,North,0,7.0,32.0,84,0.00,CLR,CLR,0.00,WeatherDisplay:10.37,2013-03-09 19:20:00,
2013-03-09 19:30:00,44.2,39.7,29.44,North,10,14.0,23.0,84,0.00,CLR,CLR,0.00,WeatherDisplay:10.37,2013-03-09 19:30:00,
2013-03-09 19:40:00,44.1,39.2,29.45,NNE,16,15.0,24.0,83,0.00,CLR,CLR,0.00,WeatherDisplay:10.37,2013-03-09 19:40:00,
2013-03-09 19:50:00,43.9,39.1,29.45,NE,45,13.0,29.0,83,0.00,CLR,CLR,0.00,WeatherDisplay:10.37,2013-03-09 19:50:00,
2013-03-09 20:00:00,43.9,39.1,29.44,NE,42,16.0,29.0,83,0.00,CLR,CLR,0.00,WeatherDisplay:10.37,2013-03-09 20:00:00,
2013-03-09 20:10:00,43.9,39.1,29.45,ESE,108,14.0,37.0,83,0.00,CLR,CLR,0.00,WeatherDisplay:10.37,2013-03-09 20:10:00,
2013-03-09 20:20:00,43.9,39.1,29.45,SE,135,13.0,32.0,83,0.00,CLR,CLR,0.00,WeatherDisplay:10.37,2013-03-09 20:20:00,
2013-03-09 20:30:00,43.5,38.4,29.45,SE,135,17.0,25.0,82,0.00,CLR,CLR,0.00,WeatherDisplay:10.37,2013-03-09 20:30:00,
2013-03-09 20:40:00,43.4,38.2,29.45,SE,135,8.0,28.0,82,0.00,CLR,CLR,0.00,WeatherDisplay:10.37,2013-03-09 20:40:00,
2013-03-09 20:50:00,43.3,38.2,29.46,SE,135,18.0,25.0,82,0.00,CLR,CLR,0.00,WeatherDisplay:10.37,2013-03-09 20:50:00,
2013-03-09 21:00:00,43.2,38.0,29.46,SE,135,14.0,23.0,82,0.00,CLR,CLR,0.00,WeatherDisplay:10.37,2013-03-09 21:00:00,
2013-03-09 21:10:00,43.2,38.0,29.46,SE,135,15.0,22.0,82,0.00,CLR,CLR,0.00,WeatherDisplay:10.37,2013-03-09 21:10:00,
2013-03-09 21:20:00,43.0,37.9,29.46,SE,135,12.0,27.0,82,0.00,CLR,CLR,0.00,WeatherDisplay:10.37,2013-03-09 21:20:00,
2013-03-09 21:30:00,42.8,37.4,29.46,SE,133,14.0,27.0,81,0.00,CLR,CLR,0.00,WeatherDisplay:10.37,2013-03-09 21:30:00,
2013-03-09 21:40:00,42.8,37.1,29.47,SE,135,14.0,32.0,80,0.00,CLR,CLR,0.00,WeatherDisplay:10.37,2013-03-09 21:40:00,
2013-03-09 21:50:00,42.7,37.3,29.47,SE,135,12.0,24.0,81,0.00,CLR,CLR,0.00,WeatherDisplay:10.37,2013-03-09 21:50:00,
2013-03-09 22:00:00,42.6,37.1,29.46,SE,135,12.0,28.0,81,0.00,CLR,CLR,0.00,WeatherDisplay:10.37,2013-03-09 22:00:00,
2013-03-09 22:10:00,42.4,37.0,29.46,SE,139,14.0,27.0,81,0.00,CLR,CLR,0.00,WeatherDisplay:10.37,2013-03-09 22:10:00,
2013-03-09 22:20:00,42.4,37.0,29.47,SE,135,13.0,26.0,81,0.00,CLR,CLR,0.00,WeatherDisplay:10.37,2013-03-09 22:20:00,
2013-03-09 22:30:00,42.4,36.7,29.47,SE,135,17.0,28.0,80,0.00,CLR,CLR,0.00,WeatherDisplay:10.37,2013-03-09 22:30:00,
2013-03-09 22:40:00,42.4,37.0,29.47,SE,135,10.0,22.0,81,0.00,CLR,CLR,0.00,WeatherDisplay:10.37,2013-03-09 22:40:00,
2013-03-09 22:50:00,42.3,36.8,29.47,SE,129,13.0,23.0,81,0.00,CLR,CLR,0.00,WeatherDisplay:10.37,2013-03-09 22:50:00,
2013-03-09 23:00:00,42.1,36.4,29.47,SE,132,17.0,29.0,80,0.00,CLR,CLR,0.00,WeatherDisplay:10.37,2013-03-09 23:00:00,
2013-03-09 23:10:00,42.1,36.4,29.47,SE,135,16.0,30.0,80,0.00,CLR,CLR,0.00,WeatherDisplay:10.37,2013-03-09 23:10:00,
2013-03-09 23:20:00,42.1,36.4,29.47,ESE,119,10.0,24.0,80,0.00,CLR,CLR,0.00,WeatherDisplay:10.37,2013-03-09 23:20:00,
2013-03-09 23:30:00,42.1,36.4,29.48,ESE,118,17.0,30.0,80,0.00,CLR,CLR,0.00,WeatherDisplay:10.37,2013-03-09 23:30:00,
2013-03-09 23:40:00,41.9,36.2,29.48,SE,133,9.0,26.0,80,0.00,CLR,CLR,0.00,WeatherDisplay:10.37,2013-03-09 23:40:00,
2013-03-09 23:50:00,41.9,35.9,29.47,ESE,122,15.0,37.0,79,0.00,CLR,CLR,0.00,WeatherDisplay:10.37,2013-03-09 23:50:00,